Year,Month,Day,Hour,Minute,Value (Times are PST for windspeed in km/hr)
2016,10,16,00,00,13.80
2016,10,16,00,01,11.70
2016,10,16,00,02,7.80
2016,10,16,00,03,8.80
2016,10,16,00,04,12.00
2016,10,16,00,05,8.90
2016,10,16,00,06,6.30
2016,10,16,00,07,8.10
2016,10,16,00,08,9.20
2016,10,16,00,09,9.10
2016,10,16,00,10,9.00
2016,10,16,00,11,10.70
2016,10,16,00,12,10.30
2016,10,16,00,13,6.10
2016,10,16,00,14,12.00
2016,10,16,00,15,10.90
2016,10,16,00,16,9.70
2016,10,16,00,17,10.00
2016,10,16,00,18,7.80
2016,10,16,00,19,5.20
2016,10,16,00,20,7.70
2016,10,16,00,21,9.00
2016,10,16,00,22,8.20
2016,10,16,00,23,7.80
2016,10,16,00,24,8.50
2016,10,16,00,25,5.50
2016,10,16,00,26,3.90
2016,10,16,00,27,8.70
2016,10,16,00,28,1.20
2016,10,16,00,29,4.40
2016,10,16,00,30,7.70
2016,10,16,00,31,9.00
2016,10,16,00,32,5.40
2016,10,16,00,33,3.00
2016,10,16,00,34,4.10
2016,10,16,00,35,4.90
2016,10,16,00,36,1.20
2016,10,16,00,37,2.90
2016,10,16,00,38,2.00
2016,10,16,00,39,1.60
2016,10,16,00,40,0.80
2016,10,16,00,41,5.70
2016,10,16,00,42,6.40
2016,10,16,00,43,3.60
2016,10,16,00,44,5.70
2016,10,16,00,45,8.30
2016,10,16,00,46,3.70
2016,10,16,00,47,2.00
2016,10,16,00,48,2.10
2016,10,16,00,49,5.10
2016,10,16,00,50,4.00
2016,10,16,00,51,6.60
2016,10,16,00,52,7.20
2016,10,16,00,53,5.40
2016,10,16,00,54,6.40
2016,10,16,00,55,4.70
2016,10,16,00,56,3.70
2016,10,16,00,57,8.30
2016,10,16,00,58,3.80
2016,10,16,00,59,3.90
2016,10,16,01,00,2.10
2016,10,16,01,01,5.30
2016,10,16,01,02,6.40
2016,10,16,01,03,6.10
2016,10,16,01,04,6.40
2016,10,16,01,05,4.80
2016,10,16,01,06,2.30
2016,10,16,01,07,1.00
2016,10,16,01,08,2.10
2016,10,16,01,09,2.80
2016,10,16,01,10,0.50
2016,10,16,01,11,2.60
2016,10,16,01,12,1.50
2016,10,16,01,13,1.60
2016,10,16,01,14,1.60
2016,10,16,01,15,1.60
2016,10,16,01,16,1.60
2016,10,16,01,17,1.60
2016,10,16,01,18,1.60
2016,10,16,01,19,1.60
2016,10,16,01,20,2.20
2016,10,16,01,21,7.60
2016,10,16,01,22,6.10
2016,10,16,01,23,3.10
2016,10,16,01,24,4.50
2016,10,16,01,25,3.90
2016,10,16,01,26,3.50
2016,10,16,01,27,2.70
2016,10,16,01,28,3.00
2016,10,16,01,29,3.80
2016,10,16,01,30,3.00
2016,10,16,01,31,2.40
2016,10,16,01,32,1.40
2016,10,16,01,33,2.20
2016,10,16,01,34,3.40
2016,10,16,01,35,5.80
2016,10,16,01,36,5.20
2016,10,16,01,37,2.70
2016,10,16,01,38,4.90
2016,10,16,01,39,4.20
2016,10,16,01,40,2.90
2016,10,16,01,41,1.80
2016,10,16,01,42,3.50
2016,10,16,01,43,2.60
2016,10,16,01,44,2.70
2016,10,16,01,45,2.60
2016,10,16,01,46,2.40
2016,10,16,01,47,1.10
2016,10,16,01,48,1.50
2016,10,16,01,49,2.10
2016,10,16,01,50,0.50
2016,10,16,01,51,0.60
2016,10,16,01,52,1.90
2016,10,16,01,53,1.70
2016,10,16,01,54,1.30
2016,10,16,01,55,2.70
2016,10,16,01,56,0.80
2016,10,16,01,57,2.80
2016,10,16,01,58,2.20
2016,10,16,01,59,2.10
2016,10,16,02,00,2.00
2016,10,16,02,01,6.00
2016,10,16,02,02,4.70
2016,10,16,02,03,2.00
2016,10,16,02,04,3.50
2016,10,16,02,05,0.60
2016,10,16,02,06,0.30
2016,10,16,02,07,1.60
2016,10,16,02,08,3.40
2016,10,16,02,09,2.00
2016,10,16,02,10,1.60
2016,10,16,02,11,1.60
2016,10,16,02,12,1.60
2016,10,16,02,13,3.90
2016,10,16,02,14,4.20
2016,10,16,02,15,4.40
2016,10,16,02,16,5.30
2016,10,16,02,17,4.50
2016,10,16,02,18,4.20
2016,10,16,02,19,3.20
2016,10,16,02,20,4.50
2016,10,16,02,21,5.10
2016,10,16,02,22,5.40
2016,10,16,02,23,5.10
2016,10,16,02,24,6.40
2016,10,16,02,25,6.10
2016,10,16,02,26,5.80
2016,10,16,02,27,5.70
2016,10,16,02,28,4.70
2016,10,16,02,29,4.60
2016,10,16,02,30,5.50
2016,10,16,02,31,7.40
2016,10,16,02,32,7.90
2016,10,16,02,33,8.30
2016,10,16,02,34,8.80
2016,10,16,02,35,6.70
2016,10,16,02,36,7.00
2016,10,16,02,37,7.70
2016,10,16,02,38,8.60
2016,10,16,02,39,7.40
2016,10,16,02,40,6.70
2016,10,16,02,41,5.80
2016,10,16,02,42,6.70
2016,10,16,02,43,4.20
2016,10,16,02,44,6.60
2016,10,16,02,45,7.40
2016,10,16,02,46,4.50
2016,10,16,02,47,3.40
2016,10,16,02,48,1.10
2016,10,16,02,49,0.50
2016,10,16,02,50,4.50
2016,10,16,02,51,4.50
2016,10,16,02,52,4.40
2016,10,16,02,53,1.40
2016,10,16,02,54,1.60
2016,10,16,02,55,0.60
2016,10,16,02,56,2.90
2016,10,16,02,57,4.40
2016,10,16,02,58,4.30
2016,10,16,02,59,3.30
2016,10,16,03,00,3.80
2016,10,16,03,01,1.30
2016,10,16,03,02,2.50
2016,10,16,03,03,2.10
2016,10,16,03,04,2.10
2016,10,16,03,05,3.00
2016,10,16,03,06,2.00
2016,10,16,03,07,3.40
2016,10,16,03,08,3.90
2016,10,16,03,09,1.80
2016,10,16,03,10,0.30
2016,10,16,03,11,1.00
2016,10,16,03,12,3.50
2016,10,16,03,13,3.40
2016,10,16,03,14,4.90
2016,10,16,03,15,6.30
2016,10,16,03,16,5.90
2016,10,16,03,17,3.90
2016,10,16,03,18,9.70
2016,10,16,03,19,9.40
2016,10,16,03,20,4.40
2016,10,16,03,21,2.10
2016,10,16,03,22,5.10
2016,10,16,03,23,5.90
2016,10,16,03,24,2.50
2016,10,16,03,25,1.80
2016,10,16,03,26,1.70
2016,10,16,03,27,2.80
2016,10,16,03,28,4.00
2016,10,16,03,29,4.60
2016,10,16,03,30,5.10
2016,10,16,03,31,5.60
2016,10,16,03,32,7.00
2016,10,16,03,33,8.30
2016,10,16,03,34,6.30
2016,10,16,03,35,4.70
2016,10,16,03,36,5.90
2016,10,16,03,37,4.50
2016,10,16,03,38,4.90
2016,10,16,03,39,3.40
2016,10,16,03,40,4.10
2016,10,16,03,41,3.40
2016,10,16,03,42,1.20
2016,10,16,03,43,0.80
2016,10,16,03,44,1.00
2016,10,16,03,45,0.10
2016,10,16,03,46,1.40
2016,10,16,03,47,2.10
2016,10,16,03,48,2.80
2016,10,16,03,49,2.40
2016,10,16,03,50,2.50
2016,10,16,03,51,2.40
2016,10,16,03,52,3.90
2016,10,16,03,53,4.20
2016,10,16,03,54,4.10
2016,10,16,03,55,5.30
2016,10,16,03,56,5.70
2016,10,16,03,57,6.10
2016,10,16,03,58,4.50
2016,10,16,03,59,2.00
2016,10,16,04,00,2.10
2016,10,16,04,01,1.50
2016,10,16,04,02,4.50
2016,10,16,04,03,4.10
2016,10,16,04,04,2.20
2016,10,16,04,05,1.20
2016,10,16,04,06,0.80
2016,10,16,04,07,2.30
2016,10,16,04,08,2.10
2016,10,16,04,09,2.20
2016,10,16,04,10,2.20
2016,10,16,04,11,2.50
2016,10,16,04,12,4.10
2016,10,16,04,13,4.70
2016,10,16,04,14,3.40
2016,10,16,04,15,4.00
2016,10,16,04,16,7.40
2016,10,16,04,17,6.50
2016,10,16,04,18,4.80
2016,10,16,04,19,5.40
2016,10,16,04,20,3.40
2016,10,16,04,21,3.30
2016,10,16,04,22,4.60
2016,10,16,04,23,2.30
2016,10,16,04,24,0.30
2016,10,16,04,25,0.10
2016,10,16,04,26,0.70
2016,10,16,04,27,3.00
2016,10,16,04,28,3.00
2016,10,16,04,29,2.70
2016,10,16,04,30,3.50
2016,10,16,04,31,2.80
2016,10,16,04,32,2.80
2016,10,16,04,33,2.70
2016,10,16,04,34,1.00
2016,10,16,04,35,1.50
2016,10,16,04,36,1.90
2016,10,16,04,37,4.00
2016,10,16,04,38,2.30
2016,10,16,04,39,3.70
2016,10,16,04,40,4.40
2016,10,16,04,41,4.20
2016,10,16,04,42,1.20
2016,10,16,04,43,0.80
2016,10,16,04,44,1.80
2016,10,16,04,45,1.50
2016,10,16,04,46,0.70
2016,10,16,04,47,2.10
2016,10,16,04,48,2.10
2016,10,16,04,49,1.90
2016,10,16,04,50,1.90
2016,10,16,04,51,0.80
2016,10,16,04,52,1.50
2016,10,16,04,53,1.60
2016,10,16,04,54,1.60
2016,10,16,04,55,2.60
2016,10,16,04,56,2.40
2016,10,16,04,57,2.50
2016,10,16,04,58,2.80
2016,10,16,04,59,3.40
2016,10,16,05,00,2.10
2016,10,16,05,01,2.90
2016,10,16,05,02,3.40
2016,10,16,05,03,2.80
2016,10,16,05,04,2.50
2016,10,16,05,05,3.60
2016,10,16,05,06,3.90
2016,10,16,05,07,4.10
2016,10,16,05,08,5.40
2016,10,16,05,09,5.30
2016,10,16,05,10,4.50
2016,10,16,05,11,5.00
2016,10,16,05,12,5.50
2016,10,16,05,13,5.00
2016,10,16,05,14,6.10
2016,10,16,05,15,4.30
2016,10,16,05,16,5.20
2016,10,16,05,17,6.00
2016,10,16,05,18,6.10
2016,10,16,05,19,4.80
2016,10,16,05,20,3.50
2016,10,16,05,21,3.50
2016,10,16,05,22,4.10
2016,10,16,05,23,4.20
2016,10,16,05,24,4.70
2016,10,16,05,25,4.80
2016,10,16,05,26,6.00
2016,10,16,05,27,6.20
2016,10,16,05,28,6.60
2016,10,16,05,29,7.30
2016,10,16,05,30,6.20
2016,10,16,05,31,6.10
2016,10,16,05,32,5.60
2016,10,16,05,33,5.90
2016,10,16,05,34,7.40
2016,10,16,05,35,8.50
2016,10,16,05,36,7.50
2016,10,16,05,37,6.40
2016,10,16,05,38,4.40
2016,10,16,05,39,2.80
2016,10,16,05,40,3.70
2016,10,16,05,41,3.60
2016,10,16,05,42,1.20
2016,10,16,05,43,0.60
2016,10,16,05,44,0.10
2016,10,16,05,45,0.20
2016,10,16,05,46,0.90
2016,10,16,05,47,0.10
2016,10,16,05,48,1.40
2016,10,16,05,49,2.50
2016,10,16,05,50,3.10
2016,10,16,05,51,3.00
2016,10,16,05,52,3.10
2016,10,16,05,53,2.40
2016,10,16,05,54,2.90
2016,10,16,05,55,2.20
2016,10,16,05,56,1.70
2016,10,16,05,57,3.40
2016,10,16,05,58,2.30
2016,10,16,05,59,2.10
2016,10,16,06,00,2.40
2016,10,16,06,01,1.40
2016,10,16,06,02,1.50
2016,10,16,06,03,1.30
2016,10,16,06,04,1.20
2016,10,16,06,05,0.80
2016,10,16,06,06,0.20
2016,10,16,06,07,0.00
2016,10,16,06,08,0.10
2016,10,16,06,09,1.10
2016,10,16,06,10,1.00
2016,10,16,06,11,0.10
2016,10,16,06,12,0.00
2016,10,16,06,13,0.00
2016,10,16,06,14,0.00
2016,10,16,06,15,0.00
2016,10,16,06,16,0.00
2016,10,16,06,17,0.00
2016,10,16,06,18,0.00
2016,10,16,06,19,0.00
2016,10,16,06,20,0.00
2016,10,16,06,21,0.20
2016,10,16,06,22,0.80
2016,10,16,06,23,2.00
2016,10,16,06,24,2.10
2016,10,16,06,25,2.80
2016,10,16,06,26,2.70
2016,10,16,06,27,1.70
2016,10,16,06,28,1.20
2016,10,16,06,29,1.60
2016,10,16,06,30,1.50
2016,10,16,06,31,1.50
2016,10,16,06,32,1.00
2016,10,16,06,33,1.00
2016,10,16,06,34,1.50
2016,10,16,06,35,0.20
2016,10,16,06,36,0.00
2016,10,16,06,37,0.00
2016,10,16,06,38,0.00
2016,10,16,06,39,0.00
2016,10,16,06,40,0.00
2016,10,16,06,41,0.00
2016,10,16,06,42,0.00
2016,10,16,06,43,1.20
2016,10,16,06,44,3.10
2016,10,16,06,45,3.70
2016,10,16,06,46,1.50
2016,10,16,06,47,0.20
2016,10,16,06,48,2.50
2016,10,16,06,49,4.70
2016,10,16,06,50,3.70
2016,10,16,06,51,1.90
2016,10,16,06,52,0.80
2016,10,16,06,53,2.70
2016,10,16,06,54,5.70
2016,10,16,06,55,9.00
2016,10,16,06,56,12.40
2016,10,16,06,57,7.10
2016,10,16,06,58,4.60
2016,10,16,06,59,2.60
2016,10,16,07,00,2.90
2016,10,16,07,01,0.90
2016,10,16,07,02,0.10
2016,10,16,07,03,2.60
2016,10,16,07,04,3.50
2016,10,16,07,05,2.80
2016,10,16,07,06,4.70
2016,10,16,07,07,2.90
2016,10,16,07,08,6.10
2016,10,16,07,09,4.10
2016,10,16,07,10,3.10
2016,10,16,07,11,3.90
2016,10,16,07,12,4.10
2016,10,16,07,13,3.20
2016,10,16,07,14,3.10
2016,10,16,07,15,6.60
2016,10,16,07,16,4.70
2016,10,16,07,17,3.80
2016,10,16,07,18,4.00
2016,10,16,07,19,2.30
2016,10,16,07,20,4.90
2016,10,16,07,21,4.10
2016,10,16,07,22,3.00
2016,10,16,07,23,2.70
2016,10,16,07,24,1.30
2016,10,16,07,25,3.20
2016,10,16,07,26,3.20
2016,10,16,07,27,1.40
2016,10,16,07,28,1.90
2016,10,16,07,29,1.40
2016,10,16,07,30,3.10
2016,10,16,07,31,1.70
2016,10,16,07,32,3.50
2016,10,16,07,33,5.40
2016,10,16,07,34,4.30
2016,10,16,07,35,3.60
2016,10,16,07,36,4.30
2016,10,16,07,37,4.70
2016,10,16,07,38,5.40
2016,10,16,07,39,5.60
2016,10,16,07,40,4.70
2016,10,16,07,41,6.40
2016,10,16,07,42,6.00
2016,10,16,07,43,7.80
2016,10,16,07,44,6.60
2016,10,16,07,45,5.90
2016,10,16,07,46,5.10
2016,10,16,07,47,7.40
2016,10,16,07,48,9.90
2016,10,16,07,49,8.40
2016,10,16,07,50,7.60
2016,10,16,07,51,4.80
2016,10,16,07,52,3.10
2016,10,16,07,53,5.50
2016,10,16,07,54,6.10
2016,10,16,07,55,6.10
2016,10,16,07,56,7.50
2016,10,16,07,57,4.40
2016,10,16,07,58,9.10
2016,10,16,07,59,11.10
2016,10,16,08,00,9.90
2016,10,16,08,01,8.40
2016,10,16,08,02,3.90
2016,10,16,08,03,3.90
2016,10,16,08,04,3.20
2016,10,16,08,05,8.50
2016,10,16,08,06,6.00
2016,10,16,08,07,8.70
2016,10,16,08,08,8.10
2016,10,16,08,09,7.60
2016,10,16,08,10,13.00
2016,10,16,08,11,6.00
2016,10,16,08,12,6.30
2016,10,16,08,13,6.70
2016,10,16,08,14,7.20
2016,10,16,08,15,6.10
2016,10,16,08,16,7.30
2016,10,16,08,17,6.50
2016,10,16,08,18,7.70
2016,10,16,08,19,5.20
2016,10,16,08,20,7.70
2016,10,16,08,21,4.90
2016,10,16,08,22,6.50
2016,10,16,08,23,4.80
2016,10,16,08,24,5.90
2016,10,16,08,25,7.20
2016,10,16,08,26,4.90
2016,10,16,08,27,3.40
2016,10,16,08,28,4.80
2016,10,16,08,29,4.80
2016,10,16,08,30,4.10
2016,10,16,08,31,4.40
2016,10,16,08,32,3.50
2016,10,16,08,33,5.30
2016,10,16,08,34,4.50
2016,10,16,08,35,4.80
2016,10,16,08,36,1.80
2016,10,16,08,37,4.50
2016,10,16,08,38,7.20
2016,10,16,08,39,9.40
2016,10,16,08,40,9.10
2016,10,16,08,41,5.50
2016,10,16,08,42,6.40
2016,10,16,08,43,4.10
2016,10,16,08,44,6.10
2016,10,16,08,45,4.40
2016,10,16,08,46,6.20
2016,10,16,08,47,8.00
2016,10,16,08,48,5.30
2016,10,16,08,49,5.10
2016,10,16,08,50,4.30
2016,10,16,08,51,9.20
2016,10,16,08,52,9.30
2016,10,16,08,53,4.90
2016,10,16,08,54,5.70
2016,10,16,08,55,7.90
2016,10,16,08,56,9.40
2016,10,16,08,57,6.50
2016,10,16,08,58,5.30
2016,10,16,08,59,6.80
2016,10,16,09,00,7.50
2016,10,16,09,01,8.70
2016,10,16,09,02,9.10
2016,10,16,09,03,6.30
2016,10,16,09,04,4.00
2016,10,16,09,05,5.00
2016,10,16,09,06,7.40
2016,10,16,09,07,8.90
2016,10,16,09,08,4.50
2016,10,16,09,09,4.40
2016,10,16,09,10,5.50
2016,10,16,09,11,4.10
2016,10,16,09,12,3.60
2016,10,16,09,13,5.90
2016,10,16,09,14,6.70
2016,10,16,09,15,8.10
2016,10,16,09,16,7.70
2016,10,16,09,17,7.20
2016,10,16,09,18,6.80
2016,10,16,09,19,10.30
2016,10,16,09,20,7.10
2016,10,16,09,21,8.70
2016,10,16,09,22,8.50
2016,10,16,09,23,7.50
2016,10,16,09,24,6.30
2016,10,16,09,25,6.10
2016,10,16,09,26,5.70
2016,10,16,09,27,3.20
2016,10,16,09,28,2.50
2016,10,16,09,29,2.90
2016,10,16,09,30,4.30
2016,10,16,09,31,5.10
2016,10,16,09,32,5.60
2016,10,16,09,33,5.80
2016,10,16,09,34,4.80
2016,10,16,09,35,4.50
2016,10,16,09,36,6.00
2016,10,16,09,37,5.10
2016,10,16,09,38,5.30
2016,10,16,09,39,5.40
2016,10,16,09,40,7.40
2016,10,16,09,41,6.10
2016,10,16,09,42,7.00
2016,10,16,09,43,7.10
2016,10,16,09,44,5.00
2016,10,16,09,45,3.80
2016,10,16,09,46,5.80
2016,10,16,09,47,6.10
2016,10,16,09,48,4.90
2016,10,16,09,49,5.00
2016,10,16,09,50,5.60
2016,10,16,09,51,8.00
2016,10,16,09,52,5.70
2016,10,16,09,53,2.10
2016,10,16,09,54,3.40
2016,10,16,09,55,2.80
2016,10,16,09,56,3.70
2016,10,16,09,57,3.10
2016,10,16,09,58,2.00
2016,10,16,09,59,2.10
2016,10,16,10,00,1.50
2016,10,16,10,01,0.80
2016,10,16,10,02,0.80
2016,10,16,10,03,1.20
2016,10,16,10,04,0.50
2016,10,16,10,05,0.80
2016,10,16,10,06,1.50
2016,10,16,10,07,4.00
2016,10,16,10,08,2.70
2016,10,16,10,09,3.10
2016,10,16,10,10,1.10
2016,10,16,10,11,0.30
2016,10,16,10,12,5.40
2016,10,16,10,13,3.20
2016,10,16,10,14,1.30
2016,10,16,10,15,1.30
2016,10,16,10,16,1.10
2016,10,16,10,17,2.70
2016,10,16,10,18,1.50
2016,10,16,10,19,2.10
2016,10,16,10,20,2.60
2016,10,16,10,21,2.70
2016,10,16,10,22,2.90
2016,10,16,10,23,5.60
2016,10,16,10,24,6.20
2016,10,16,10,25,2.50
2016,10,16,10,26,3.50
2016,10,16,10,27,4.10
2016,10,16,10,28,3.30
2016,10,16,10,29,5.60
2016,10,16,10,30,3.50
2016,10,16,10,31,4.60
2016,10,16,10,32,7.60
2016,10,16,10,33,8.90
2016,10,16,10,34,7.10
2016,10,16,10,35,7.10
2016,10,16,10,36,9.20
2016,10,16,10,37,6.30
2016,10,16,10,38,3.10
2016,10,16,10,39,1.50
2016,10,16,10,40,0.80
2016,10,16,10,41,3.30
2016,10,16,10,42,6.00
2016,10,16,10,43,7.20
2016,10,16,10,44,6.30
2016,10,16,10,45,8.30
2016,10,16,10,46,6.70
2016,10,16,10,47,6.70
2016,10,16,10,48,5.90
2016,10,16,10,49,7.00
2016,10,16,10,50,8.80
2016,10,16,10,51,9.80
2016,10,16,10,52,6.90
2016,10,16,10,53,6.80
2016,10,16,10,54,7.10
2016,10,16,10,55,6.50
2016,10,16,10,56,6.60
2016,10,16,10,57,6.80
2016,10,16,10,58,5.00
2016,10,16,10,59,5.60
2016,10,16,11,00,5.70
2016,10,16,11,01,4.80
2016,10,16,11,02,6.70
2016,10,16,11,03,7.10
2016,10,16,11,04,6.70
2016,10,16,11,05,5.40
2016,10,16,11,06,2.30
2016,10,16,11,07,4.70
2016,10,16,11,08,6.20
2016,10,16,11,09,6.40
2016,10,16,11,10,5.70
2016,10,16,11,11,4.10
2016,10,16,11,12,6.20
2016,10,16,11,13,5.40
2016,10,16,11,14,4.50
2016,10,16,11,15,3.60
2016,10,16,11,16,1.80
2016,10,16,11,17,3.50
2016,10,16,11,18,4.60
2016,10,16,11,19,5.80
2016,10,16,11,20,7.50
2016,10,16,11,21,6.80
2016,10,16,11,22,5.00
2016,10,16,11,23,1.20
2016,10,16,11,24,5.50
2016,10,16,11,25,1.40
2016,10,16,11,26,5.60
2016,10,16,11,27,11.30
2016,10,16,11,28,12.50
2016,10,16,11,29,10.50
2016,10,16,11,30,11.60
2016,10,16,11,31,10.80
2016,10,16,11,32,11.00
2016,10,16,11,33,11.20
2016,10,16,11,34,11.50
2016,10,16,11,35,14.20
2016,10,16,11,36,11.80
2016,10,16,11,37,9.60
2016,10,16,11,38,7.50
2016,10,16,11,39,6.10
2016,10,16,11,40,11.30
2016,10,16,11,41,8.60
2016,10,16,11,42,12.80
2016,10,16,11,43,8.30
2016,10,16,11,44,6.40
2016,10,16,11,45,5.40
2016,10,16,11,46,4.60
2016,10,16,11,47,5.30
2016,10,16,11,48,4.40
2016,10,16,11,49,3.20
2016,10,16,11,50,3.90
2016,10,16,11,51,3.90
2016,10,16,11,52,10.10
2016,10,16,11,53,16.90
2016,10,16,11,54,11.70
2016,10,16,11,55,15.90
2016,10,16,11,56,12.50
2016,10,16,11,57,9.30
2016,10,16,11,58,10.20
2016,10,16,11,59,11.70
2016,10,16,12,00,12.10
2016,10,16,12,01,13.90
2016,10,16,12,02,18.10
2016,10,16,12,03,10.00
2016,10,16,12,04,4.80
2016,10,16,12,05,10.70
2016,10,16,12,06,8.00
2016,10,16,12,07,9.60
2016,10,16,12,08,12.40
2016,10,16,12,09,7.70
2016,10,16,12,10,10.40
2016,10,16,12,11,7.40
2016,10,16,12,12,9.10
2016,10,16,12,13,8.20
2016,10,16,12,14,6.40
2016,10,16,12,15,3.10
2016,10,16,12,16,4.30
2016,10,16,12,17,5.80
2016,10,16,12,18,6.90
2016,10,16,12,19,5.70
2016,10,16,12,20,7.40
2016,10,16,12,21,4.80
2016,10,16,12,22,7.70
2016,10,16,12,23,4.60
2016,10,16,12,24,7.20
2016,10,16,12,25,6.10
2016,10,16,12,26,5.00
2016,10,16,12,27,6.00
2016,10,16,12,28,9.40
2016,10,16,12,29,9.40
2016,10,16,12,30,5.90
2016,10,16,12,31,5.10
2016,10,16,12,32,8.10
2016,10,16,12,33,7.60
2016,10,16,12,34,6.60
2016,10,16,12,35,6.20
2016,10,16,12,36,10.00
2016,10,16,12,37,6.30
2016,10,16,12,38,6.60
2016,10,16,12,39,10.00
2016,10,16,12,40,7.20
2016,10,16,12,41,5.00
2016,10,16,12,42,4.80
2016,10,16,12,43,10.40
2016,10,16,12,44,10.40
2016,10,16,12,45,6.10
2016,10,16,12,46,3.40
2016,10,16,12,47,3.80
2016,10,16,12,48,3.70
2016,10,16,12,49,8.10
2016,10,16,12,50,3.50
2016,10,16,12,51,3.10
2016,10,16,12,52,2.70
2016,10,16,12,53,1.20
2016,10,16,12,54,1.50
2016,10,16,12,55,2.10
2016,10,16,12,56,4.20
2016,10,16,12,57,3.70
2016,10,16,12,58,4.10
2016,10,16,12,59,4.30
2016,10,16,13,00,3.90
2016,10,16,13,01,4.20
2016,10,16,13,02,3.40
2016,10,16,13,03,2.20
2016,10,16,13,04,1.60
2016,10,16,13,05,2.30
2016,10,16,13,06,2.50
2016,10,16,13,07,2.20
2016,10,16,13,08,1.80
2016,10,16,13,09,3.60
2016,10,16,13,10,2.30
2016,10,16,13,11,1.80
2016,10,16,13,12,0.80
2016,10,16,13,13,0.40
2016,10,16,13,14,0.20
2016,10,16,13,15,0.30
2016,10,16,13,16,0.10
2016,10,16,13,17,0.50
2016,10,16,13,18,1.80
2016,10,16,13,19,2.00
2016,10,16,13,20,1.20
2016,10,16,13,21,1.20
2016,10,16,13,22,0.50
2016,10,16,13,23,1.20
2016,10,16,13,24,3.10
2016,10,16,13,25,4.00
2016,10,16,13,26,3.80
2016,10,16,13,27,2.70
2016,10,16,13,28,4.10
2016,10,16,13,29,3.90
2016,10,16,13,30,3.20
2016,10,16,13,31,2.50
2016,10,16,13,32,4.60
2016,10,16,13,33,4.00
2016,10,16,13,34,3.60
2016,10,16,13,35,2.90
2016,10,16,13,36,1.50
2016,10,16,13,37,3.30
2016,10,16,13,38,10.30
2016,10,16,13,39,8.30
2016,10,16,13,40,4.90
2016,10,16,13,41,6.20
2016,10,16,13,42,4.90
2016,10,16,13,43,3.80
2016,10,16,13,44,10.80
2016,10,16,13,45,5.30
2016,10,16,13,46,7.00
2016,10,16,13,47,10.40
2016,10,16,13,48,9.80
2016,10,16,13,49,8.80
2016,10,16,13,50,8.70
2016,10,16,13,51,8.40
2016,10,16,13,52,8.30
2016,10,16,13,53,10.00
2016,10,16,13,54,6.00
2016,10,16,13,55,8.50
2016,10,16,13,56,8.20
2016,10,16,13,57,9.40
2016,10,16,13,58,11.10
2016,10,16,13,59,10.90
2016,10,16,14,00,10.00
2016,10,16,14,01,3.90
2016,10,16,14,02,6.00
2016,10,16,14,03,7.50
2016,10,16,14,04,6.30
2016,10,16,14,05,7.50
2016,10,16,14,06,5.50
2016,10,16,14,07,7.00
2016,10,16,14,08,4.70
2016,10,16,14,09,6.00
2016,10,16,14,10,6.70
2016,10,16,14,11,5.80
2016,10,16,14,12,3.50
2016,10,16,14,13,6.10
2016,10,16,14,14,4.00
2016,10,16,14,15,3.00
2016,10,16,14,16,3.70
2016,10,16,14,17,4.40
2016,10,16,14,18,2.10
2016,10,16,14,19,1.40
2016,10,16,14,20,1.50
2016,10,16,14,21,3.30
2016,10,16,14,22,5.30
2016,10,16,14,23,3.70
2016,10,16,14,24,2.40
2016,10,16,14,25,5.40
2016,10,16,14,26,4.00
2016,10,16,14,27,4.70
2016,10,16,14,28,4.40
2016,10,16,14,29,3.60
2016,10,16,14,30,2.40
2016,10,16,14,31,4.80
2016,10,16,14,32,3.90
2016,10,16,14,33,3.40
2016,10,16,14,34,2.00
2016,10,16,14,35,1.30
2016,10,16,14,36,2.80
2016,10,16,14,37,6.70
2016,10,16,14,38,4.40
2016,10,16,14,39,5.30
2016,10,16,14,40,7.30
2016,10,16,14,41,5.10
2016,10,16,14,42,4.60
2016,10,16,14,43,5.70
2016,10,16,14,44,8.30
2016,10,16,14,45,6.80
2016,10,16,14,46,4.80
2016,10,16,14,47,8.30
2016,10,16,14,48,7.70
2016,10,16,14,49,7.80
2016,10,16,14,50,5.40
2016,10,16,14,51,8.30
2016,10,16,14,52,7.30
2016,10,16,14,53,3.10
2016,10,16,14,54,4.70
2016,10,16,14,55,6.20
2016,10,16,14,56,7.50
2016,10,16,14,57,8.50
2016,10,16,14,58,6.40
2016,10,16,14,59,6.40
2016,10,16,15,00,6.40
2016,10,16,15,01,6.40
2016,10,16,15,02,6.70
2016,10,16,15,03,7.10
2016,10,16,15,04,7.80
2016,10,16,15,05,9.00
2016,10,16,15,06,8.10
2016,10,16,15,07,9.40
2016,10,16,15,08,9.70
2016,10,16,15,09,6.20
2016,10,16,15,10,8.50
2016,10,16,15,11,8.00
2016,10,16,15,12,9.60
2016,10,16,15,13,11.70
2016,10,16,15,14,10.30
2016,10,16,15,15,9.30
2016,10,16,15,16,4.80
2016,10,16,15,17,6.30
2016,10,16,15,18,4.10
2016,10,16,15,19,4.30
2016,10,16,15,20,6.20
2016,10,16,15,21,2.90
2016,10,16,15,22,6.80
2016,10,16,15,23,4.60
2016,10,16,15,24,4.20
2016,10,16,15,25,2.10
2016,10,16,15,26,4.70
2016,10,16,15,27,6.70
2016,10,16,15,28,6.60
2016,10,16,15,29,3.40
2016,10,16,15,30,6.00
2016,10,16,15,31,7.30
2016,10,16,15,32,5.40
2016,10,16,15,33,5.80
2016,10,16,15,34,2.40
2016,10,16,15,35,1.20
2016,10,16,15,36,3.70
2016,10,16,15,37,2.80
2016,10,16,15,38,7.00
2016,10,16,15,39,4.90
2016,10,16,15,40,3.20
2016,10,16,15,41,1.60
2016,10,16,15,42,2.30
2016,10,16,15,43,0.10
2016,10,16,15,44,0.30
2016,10,16,15,45,2.10
2016,10,16,15,46,0.80
2016,10,16,15,47,1.60
2016,10,16,15,48,3.10
2016,10,16,15,49,3.90
2016,10,16,15,50,3.50
2016,10,16,15,51,3.30
2016,10,16,15,52,3.20
2016,10,16,15,53,3.70
2016,10,16,15,54,4.50
2016,10,16,15,55,3.40
2016,10,16,15,56,4.40
2016,10,16,15,57,4.50
2016,10,16,15,58,4.80
2016,10,16,15,59,3.40
2016,10,16,16,00,3.30
2016,10,16,16,01,5.10
2016,10,16,16,02,4.90
2016,10,16,16,03,4.80
2016,10,16,16,04,4.80
2016,10,16,16,05,4.80
2016,10,16,16,06,4.80
2016,10,16,16,07,5.00
2016,10,16,16,08,4.10
2016,10,16,16,09,3.90
2016,10,16,16,10,4.70
2016,10,16,16,11,3.00
2016,10,16,16,12,2.80
2016,10,16,16,13,2.80
2016,10,16,16,14,3.20
2016,10,16,16,15,3.60
2016,10,16,16,16,4.20
2016,10,16,16,17,2.70
2016,10,16,16,18,2.10
2016,10,16,16,19,2.30
2016,10,16,16,20,3.90
2016,10,16,16,21,4.60
2016,10,16,16,22,5.20
2016,10,16,16,23,7.40
2016,10,16,16,24,8.90
2016,10,16,16,25,10.50
2016,10,16,16,26,6.30
2016,10,16,16,27,5.80
2016,10,16,16,28,1.70
2016,10,16,16,29,2.00
2016,10,16,16,30,3.40
2016,10,16,16,31,2.50
2016,10,16,16,32,5.50
2016,10,16,16,33,3.60
2016,10,16,16,34,0.60
2016,10,16,16,35,0.30
2016,10,16,16,36,0.30
2016,10,16,16,37,0.30
2016,10,16,16,38,0.70
2016,10,16,16,39,1.80
2016,10,16,16,40,2.30
2016,10,16,16,41,3.70
2016,10,16,16,42,3.10
2016,10,16,16,43,3.00
2016,10,16,16,44,2.60
2016,10,16,16,45,2.10
2016,10,16,16,46,2.20
2016,10,16,16,47,3.00
2016,10,16,16,48,3.40
2016,10,16,16,49,1.60
2016,10,16,16,50,0.80
2016,10,16,16,51,1.50
2016,10,16,16,52,0.50
2016,10,16,16,53,0.20
2016,10,16,16,54,0.20
2016,10,16,16,55,0.00
2016,10,16,16,56,0.10
2016,10,16,16,57,0.00
2016,10,16,16,58,0.00
2016,10,16,16,59,0.00
2016,10,16,17,00,0.40
2016,10,16,17,01,1.40
2016,10,16,17,02,1.00
2016,10,16,17,03,0.20
2016,10,16,17,04,0.00
2016,10,16,17,05,0.00
2016,10,16,17,06,0.00
2016,10,16,17,07,0.20
2016,10,16,17,08,0.30
2016,10,16,17,09,0.90
2016,10,16,17,10,1.60
2016,10,16,17,11,1.00
2016,10,16,17,12,0.30
2016,10,16,17,13,0.30
2016,10,16,17,14,0.60
2016,10,16,17,15,0.20
2016,10,16,17,16,0.50
2016,10,16,17,17,0.20
2016,10,16,17,18,0.00
2016,10,16,17,19,0.00
2016,10,16,17,20,1.50
2016,10,16,17,21,1.10
2016,10,16,17,22,2.40
2016,10,16,17,23,1.80
2016,10,16,17,24,2.30
2016,10,16,17,25,2.40
2016,10,16,17,26,2.70
2016,10,16,17,27,3.20
2016,10,16,17,28,1.50
2016,10,16,17,29,2.00
2016,10,16,17,30,2.30
2016,10,16,17,31,4.00
2016,10,16,17,32,3.40
2016,10,16,17,33,1.50
2016,10,16,17,34,1.20
2016,10,16,17,35,0.80
2016,10,16,17,36,0.40
2016,10,16,17,37,1.00
2016,10,16,17,38,2.20
2016,10,16,17,39,2.70
2016,10,16,17,40,2.10
2016,10,16,17,41,1.50
2016,10,16,17,42,1.30
2016,10,16,17,43,0.20
2016,10,16,17,44,3.00
2016,10,16,17,45,3.80
2016,10,16,17,46,3.50
2016,10,16,17,47,3.00
2016,10,16,17,48,2.50
2016,10,16,17,49,3.10
2016,10,16,17,50,2.80
2016,10,16,17,51,1.00
2016,10,16,17,52,1.20
2016,10,16,17,53,2.30
2016,10,16,17,54,1.50
2016,10,16,17,55,1.10
2016,10,16,17,56,2.80
2016,10,16,17,57,3.00
2016,10,16,17,58,1.80
2016,10,16,17,59,2.30
2016,10,16,18,00,1.30
2016,10,16,18,01,1.20
2016,10,16,18,02,1.50
2016,10,16,18,03,0.50
2016,10,16,18,04,1.60